Location: River House Observatory
(37.8577°N, 76.3548°W)
Time: 01:06:27
(UTC-04:00)

NOSS 3-1 (C) - Visible Passes

Search period start: 25 June 2016 00:00
Search period end: 05 July 2016 00:00
Orbit: 852 x 1357 km, 63.4° (Epoch: 17 June)

Date Brightness Start Highest point End Pass type
(mag) Time Alt. Az. Time Alt. Az. Time Alt. Az.
25 Jun 6.3 01:48:19 10° NW 01:49:55 11° NNW 01:51:35 10° N visible
25 Jun 4.7 21:17:50 10° SSE 21:21:30 17° ESE 21:25:20 10° ENE visible
25 Jun 3.7 23:05:43 10° SW 23:11:30 66° NW 23:17:55 10° NNE visible
26 Jun 6.1 01:00:20 10° WNW 01:03:49 15° NNW 01:07:30 10° N visible
26 Jun 6.7 04:49:55 10° N 04:53:11 13° NNE 04:56:35 10° NE visible
26 Jun 3.3 22:20:29 10° SSW 22:26:15 75° ESE 22:32:38 10° NE visible
27 Jun 5.7 00:13:18 10° W 00:17:53 22° NW 00:22:49 10° N visible
27 Jun 3.7 21:35:47 10° S 21:41:11 43° ESE 21:47:04 10° NE visible
27 Jun 5.1 23:26:51 10° WSW 23:32:08 32° NW 23:37:56 10° NNE visible
28 Jun 6.5 05:09:07 10° N 05:14:40 22° NE 05:20:35 10° E visible
28 Jun 4.3 22:40:54 10° SW 22:46:35 50° NW 22:52:53 10° NNE visible
29 Jun 6.4 00:36:38 10° NW 00:39:16 13° NNW 00:42:02 10° N visible
29 Jun 6.7 04:24:27 10° N 04:28:40 16° NNE 04:33:06 10° ENE visible
29 Jun 3.5 21:55:26 10° SW 22:01:14 83° WNW 22:07:42 10° NNE visible
29 Jun 6.2 23:49:12 10° WNW 23:53:14 18° NW 23:57:34 10° N visible
30 Jun 7.0 03:40:15 10° N 03:42:30 11° NNE 03:44:47 10° NE visible
30 Jun 3.4 21:10:25 10° SSW 21:16:04 59° ESE 21:22:17 10° NE visible
30 Jun 5.6 23:02:28 10° W 23:07:23 26° NW 23:12:46 10° NNE visible
01 Jul 6.4 04:43:54 10° NNW 04:50:01 26° NE 04:56:34 10° E visible
01 Jul 4.9 22:16:14 10° WSW 22:21:45 39° NW 22:27:48 10° NNE visible
02 Jul 6.7 00:13:29 10° NW 00:14:47 11° NNW 00:16:08 10° N visible
02 Jul 6.7 03:59:07 10° N 04:04:07 19° NE 04:09:24 10° ENE visible
02 Jul 4.0 21:30:31 10° SW 21:36:17 63° NW 21:42:41 10° NNE visible
02 Jul 6.5 23:25:18 10° WNW 23:28:40 15° NNW 23:32:12 10° N visible
03 Jul 6.9 03:14:36 10° N 03:18:02 13° NNE 03:21:37 10° NE visible
03 Jul 5.4 05:03:42 10° NNW 05:10:56 46° NE 05:18:47 10° ESE visible
03 Jul 6.1 22:38:13 10° W 22:42:43 21° NW 22:47:33 10° N visible
04 Jul 6.0 04:18:42 10° NNW 04:25:18 32° NE 04:32:24 10° ESE visible
04 Jul 5.5 21:51:44 10° WSW 21:56:57 31° NW 22:02:41 10° NNE visible
